TELKOM 4 (MERAH PUTIH)

Last updated on Tue Sep 16 2025 00:02:49 GMT+0000 (Coordinated Universal Time)

1 43587U 18064A 25258.60598271 .00000000 00000+0 00000+0 0 9994 2 43587 0.0219 142.6390 0001720 67.7069 110.6253 1.00268673 26123
UTC large
Height (km)
Speed (km/s)
/
Latitude / Longitude
Inclination (degrees)
Orbital Period (minutes)
Azimuth
Elevation
Range (km)
Doppler Factor

Next 0 passes for location: London (51.5072 / 0.1276)

Sorry there are no passes over London.